SCP
0 0 0 0 0 0 0 0 0 0 0 0 0 0 0 0 0 0 0 0 0 0 0 0 0 0 0
0 0 0 0 0 0 0 0 0 0 0 0 0 0 0 0 0 0 0 0 0 0 0 0 0 0 0
0 0 0 0 0 0 0 0 0 0 0 0 0 0 0 0 0 0 0 0 0 0 0 0 0 0 0
0 0 0 0 0 0 0 0 0 0 0 0 0 0 0 0 0 0 0 0 0 0 0 0 0 0 0
0 0 0 0 0 0 0 0 0 0 0 0 0 0 0 0 0 0 0 0 0 0 0 0 0 0 0
0 0 0 0 0 0 0 0 0 0 0 0 0 0 0 0 0 0 0 0 0 0 0 0 0 0 0
0 0 0 0 0 0 0 0 0 0 0 0 0 0 0 0 0 0 0 0 0 0 0 0 0 0 0
0 0 0 0 0 0 0 0 0 0 0 0 0 0 0 0 0 0 0 0 0 0 0 0 0 0 0
0 0 0 0 0 0 0 0 0 0 0 0 0 0 0 0 0 0 0 0 0 0 0 0 0 0 0
0 0 0 0 0 0 0 0 0 0 0 0 0 0 0 0 0 0 0 0 0 0 0 0 0 0 0
0 0 0 0 0 0 0 0 0 0 0 0 0 0 0 0 0 0 0 0 0 0 0 0 0 0 0
0 0 0 0 0 0 0 0 0 0 0 0 0 0 0 0 0 0 0 0 0 0 0 0 0 0 0
0 0 0 0 0 0 0 0 0 0 0 0 0 0 0 0 0 0 0 0 0 0 0 0 0 0 0
0 0 0 0 0 0 0 0 0 0 0 0 0 0 0 0 0 0 0 0 0 0 0 0 0 0 0
0 0 0 0 0 0 0 0 0 0 0 0 0 0 0 0 0 0 0 0 0 0 0 0 0 0 0
0 0 0 0 0 0 0 0 0 0 0 0 0 0 0 0 0 0 0 0 0 0 0 0 0 0 0
0 0 0 0 0 0 0 0 0 0 0 0 0 0 0 0 0 0 0 0 0 0 0 0 0 0 0
Wind_Speed_500mb
53 52 55 45 46 37 32 36 31 32 30 29 32 31 31 36 37 36 35 30 30 30 31 30 28 28 28
57 49 47 47 40 36 37 35 26 29 32 34 35 35 34 34 32 30 30 27 31 32 29 27 27 26 23
57 45 51 51 47 39 39 33 30 36 35 33 30 28 27 28 27 30 30 31 31 30 29 27 23 14 10
54 54 45 44 43 40 39 33 33 34 34 30 28 28 30 31 31 31 29 31 31 29 26 18 15 12 11
48 48 52 47 40 37 37 35 33 33 33 31 30 31 31 32 32 31 31 30 28 23 17 17 15 13 14
50 47 41 35 36 41 38 42 37 34 37 34 34 34 32 29 28 28 26 22 20 19 18 17 15 17 18
37 38 36 36 41 40 39 38 33 31 26 29 30 31 30 27 27 25 21 20 19 20 20 20 20 22 20
35 36 38 38 34 33 30 33 35 37 36 35 34 31 26 23 23 24 22 20 20 22 23 23 24 23 22
37 34 33 30 30 33 35 36 37 36 36 33 30 28 25 25 25 25 22 21 23 24 23 23 24 28 30
26 28 29 29 32 34 36 34 36 32 36 34 27 25 19 27 28 27 25 26 26 25 25 27 31 36 40
24 25 27 28 30 33 34 35 34 33 20 29 24 29 22 10 23 24 24 24 26 28 29 32 35 38 40
27 27 26 24 26 27 28 28 29 29 29 23 25 26 28 24 23 26 27 28 28 29 33 38 38 38 38
25 25 24 26 25 25 26 25 25 26 29 31 30 30 29 29 29 27 26 28 32 33 38 40 34 35 39
23 24 25 23 23 25 25 24 24 25 26 26 29 31 31 31 31 28 29 24 21 24 35 37 37 34 34
23 22 22 23 24 26 25 25 24 23 26 28 29 29 29 29 27 23 26 28 27 32 37 36 30 30 34
23 23 24 25 25 26 25 23 20 21 23 24 24 24 24 21 21 18 21 21 24 29 32 38 36 27 34
29 28 27 28 33 30 26 27 24 23 23 23 23 23 24 23 22 21 21 23 26 29 33 37 47 35 34
Wind_Direction_500mb
259 269 272 249 251 258 271 290 272 258 253 261 259 257 258 261 264 265 268 269 272 276 281 282 282 283 283
257 268 262 251 244 255 276 284 269 260 264 264 262 258 256 256 259 259 261 266 269 276 275 274 274 276 278
268 254 264 255 247 254 274 269 256 262 262 262 260 254 250 251 254 263 267 268 267 269 270 270 266 243 227
263 262 256 244 248 258 266 261 251 256 254 252 254 255 254 257 259 261 262 262 262 263 261 242 219 227 241
259 254 253 244 254 266 263 247 242 245 247 251 255 257 257 258 261 260 256 251 250 247 219 219 227 242 258
251 242 248 259 264 264 249 237 234 244 248 252 258 260 256 254 251 247 242 236 217 212 221 232 245 259 268
248 254 257 270 267 251 244 243 244 246 254 253 252 254 255 250 242 230 214 212 219 228 236 249 261 264 264
247 252 265 260 246 242 241 241 241 247 252 256 256 252 243 230 216 211 216 223 233 242 251 258 259 253 253
254 253 250 243 236 236 240 244 245 249 248 247 248 237 225 213 213 218 227 234 245 251 252 249 246 252 261
249 244 241 239 242 243 243 246 249 252 248 236 237 217 214 220 225 229 231 239 246 249 252 252 255 262 270
249 247 245 246 248 245 243 241 242 242 254 226 223 207 209 204 218 223 224 235 246 254 258 259 262 268 275
258 257 256 251 246 242 238 235 235 235 232 228 216 211 219 231 234 236 243 248 247 253 258 263 267 273 278
259 256 251 244 240 241 240 236 233 232 232 230 233 232 238 241 246 249 250 255 256 255 261 264 266 275 281
248 241 243 246 245 242 241 241 238 238 238 235 239 247 252 253 253 253 256 244 253 248 256 266 273 277 279
251 249 246 242 239 239 239 238 241 242 244 244 243 244 248 256 261 260 252 255 255 252 267 274 275 281 285
250 249 245 242 241 241 239 238 241 240 237 237 244 250 255 262 269 261 261 263 261 271 278 281 281 279 282
251 248 244 241 242 243 243 241 238 238 237 242 246 254 265 271 273 270 267 256 263 268 274 280 287 296 293
Wind_Speed_850mb
53 52 55 45 46 37 32 36 31 32 30 29 32 31 31 36 37 36 35 30 30 30 31 30 28 28 28
57 49 47 47 40 36 37 35 26 29 32 34 35 35 34 34 32 30 30 27 31 32 29 27 27 26 23
57 45 51 51 47 39 39 33 30 36 35 33 30 28 27 28 27 30 30 31 31 30 29 27 23 14 10
54 54 45 44 43 40 39 33 33 34 34 30 28 28 30 31 31 31 29 31 31 29 26 18 15 12 11
48 48 52 47 40 37 37 35 33 33 33 31 30 31 31 32 32 31 31 30 28 23 17 17 15 13 14
50 47 41 35 36 41 38 42 37 34 37 34 34 34 32 29 28 28 26 22 20 19 18 17 15 17 18
37 38 36 36 41 40 39 38 33 31 26 29 30 31 30 27 27 25 21 20 19 20 20 20 20 22 20
35 36 38 38 34 33 30 33 35 37 36 35 34 31 26 23 23 24 22 20 20 22 23 23 24 23 22
37 34 33 30 30 33 35 36 37 36 36 33 30 28 25 25 25 25 22 21 23 24 23 23 24 28 30
26 28 29 29 32 34 36 34 36 32 36 34 27 25 19 27 28 27 25 26 26 25 25 27 31 36 40
24 25 27 28 30 33 34 35 34 33 20 29 24 29 22 10 23 24 24 24 26 28 29 32 35 38 40
27 27 26 24 26 27 28 28 29 29 29 23 25 26 28 24 23 26 27 28 28 29 33 38 38 38 38
25 25 24 26 25 25 26 25 25 26 29 31 30 30 29 29 29 27 26 28 32 33 38 40 34 35 39
23 24 25 23 23 25 25 24 24 25 26 26 29 31 31 31 31 28 29 24 21 24 35 37 37 34 34
23 22 22 23 24 26 25 25 24 23 26 28 29 29 29 29 27 23 26 28 27 32 37 36 30 30 34
23 23 24 25 25 26 25 23 20 21 23 24 24 24 24 21 21 18 21 21 24 29 32 38 36 27 34
29 28 27 28 33 30 26 27 24 23 23 23 23 23 24 23 22 21 21 23 26 29 33 37 47 35 34
Wind_Direction_850mb
259 269 272 249 251 258 271 290 272 258 253 261 259 257 258 261 264 265 268 269 272 276 281 282 282 283 283
257 268 262 251 244 255 276 284 269 260 264 264 262 258 256 256 259 259 261 266 269 276 275 274 274 276 278
268 254 264 255 247 254 274 269 256 262 262 262 260 254 250 251 254 263 267 268 267 269 270 270 266 243 227
263 262 256 244 248 258 266 261 251 256 254 252 254 255 254 257 259 261 262 262 262 263 261 242 219 227 241
259 254 253 244 254 266 263 247 242 245 247 251 255 257 257 258 261 260 256 251 250 247 219 219 227 242 258
251 242 248 259 264 264 249 237 234 244 248 252 258 260 256 254 251 247 242 236 217 212 221 232 245 259 268
248 254 257 270 267 251 244 243 244 246 254 253 252 254 255 250 242 230 214 212 219 228 236 249 261 264 264
247 252 265 260 246 242 241 241 241 247 252 256 256 252 243 230 216 211 216 223 233 242 251 258 259 253 253
254 253 250 243 236 236 240 244 245 249 248 247 248 237 225 213 213 218 227 234 245 251 252 249 246 252 261
249 244 241 239 242 243 243 246 249 252 248 236 237 217 214 220 225 229 231 239 246 249 252 252 255 262 270
249 247 245 246 248 245 243 241 242 242 254 226 223 207 209 204 218 223 224 235 246 254 258 259 262 268 275
258 257 256 251 246 242 238 235 235 235 232 228 216 211 219 231 234 236 243 248 247 253 258 263 267 273 278
259 256 251 244 240 241 240 236 233 232 232 230 233 232 238 241 246 249 250 255 256 255 261 264 266 275 281
248 241 243 246 245 242 241 241 238 238 238 235 239 247 252 253 253 253 256 244 253 248 256 266 273 277 279
251 249 246 242 239 239 239 238 241 242 244 244 243 244 248 256 261 260 252 255 255 252 267 274 275 281 285
250 249 245 242 241 241 239 238 241 240 237 237 244 250 255 262 269 261 261 263 261 271 278 281 281 279 282
251 248 244 241 242 243 243 241 238 238 237 242 246 254 265 271 273 270 267 256 263 268 274 280 287 296 293